Regional Weather Roundup
Issued by NWS

Current Version | Previous Version | Text Only | Print | Product List | Glossary On
Versions: 1 2 3 4 5 6 7 8 9 10 11 12 13 14 15 16 17 18 19 20 21 22 23 24 25 26 27
000
ASUS42 KTBW 240316
RWRFL
FLORIDA REGIONAL WEATHER ROUNDUP
NATIONAL WEATHER SERVICE TAMPA BAY RUSKIN FL
1100 PM EDT MON MAY 23 2022

NOTE: "FAIR" INDICATES FEW OR NO CLOUDS BELOW 12,000 FEET WITH NO
SIGNIFICANT WEATHER AND/OR OBSTRUCTIONS TO VISIBILITY.

FLZ001>010-012>015-112-114-115-240400-
PANHANDLE FLORIDA

CITY           SKY/WX    TMP DP  RH WIND       PRES   REMARKS
PENSACOLA      CLOUDY    75  68  78 E12       30.02R
PENSACOLA NAS  MOCLDY    76  67  73 E8        30.01S
MILTON NAS     CLOUDY    72  67  84 E5        30.03S
CRESTVIEW      CLOUDY    72  70  93 CALM      30.05F
DUKE FIELD     FAIR      71  68  90 CALM      30.04S
VALPARAISO     CLOUDY    73  69  88 E5        30.02S
MARY ESTHER    CLOUDY    75  68  80 E5        30.02S
PANAMA CITY    FAIR      72  70  93 E5        30.04F
TYNDALL AFB    MOCLDY    75  70  86 E6        30.03F
APALACHICOLA   LGT RAIN  78  74  87 E6        30.04F

STATION/POSITION SKY/WX   TEMP    WIND        PRES    WAVE   SWELL
                          AIR SEA DIR/SP/G            HT/PER HT/PER
                          (F)     (DEG/KT/KT) (MB)    (FT/S) (FT/S)
30.1N   87.6W              78     120/ 16/ 19   N/A     4/ 6
29.2N   88.2W              79 80  140/ 17/ 21 1015.5R   4/ 5   2/ 8
28.8N   86.0W              79 80  100/ 10/ 14 1017.8R   4/ 9   3/ 9
PANAMA CITY BEAC           78 80  120/ 12/ 16 1017.7
TOWER C                    78     150/  9/  9 1017.9F
28.5N   84.5W              79 80   40/  2/  4 1016.7F   4/ 8   3/ 8

$$
FLZ011-016>038-118-127-128-134-139-239-240400-
NORTH FLORIDA

CITY           SKY/WX    TMP DP  RH WIND       PRES   REMARKS
MARIANNA         N/A    N/A N/A N/A MISG      30.08R
TALLAHASSEE    PTCLDY    74  69  85 CALM      30.10R
LIVE OAK       MOCLDY    73  73 100 CALM      30.09S
CROSS CITY     PTCLDY    76  73  91 CALM      30.09S
LAKE CITY      FAIR      70  68  94 CALM      30.11R
GAINESVILLE    MOCLDY    78  70  76 NE6       30.12R
WILLISTON      FAIR      74  71  89 CALM      30.09S
PALATKA        FAIR      73  70  88 SE6       30.10R
MAYPORT NAS    MOCLDY    78  74  87 CALM      30.11R
JACKSONVILLE   MOCLDY    75  69  81 CALM      30.10R
JAX NAS        MOCLDY    79  72  79 SE6       30.11S
JAX CECIL      PTCLDY    75  72  88 VRB6      30.10S
FERNANDINA BEA FAIR      77  72  86 SE8       30.10F
ST AUGUSTINE   CLEAR     78  74  87 S13       30.11R
PALM COAST     FAIR      76  75  94 SE7       30.10S

STATION/POSITION SKY/WX   TEMP    WIND        PRES    WAVE   SWELL
                          AIR SEA DIR/SP/G            HT/PER HT/PER
                          (F)     (DEG/KT/KT) (MB)    (FT/S) (FT/S)
SHELL POINT      NOT AVBL
KEATON BEACH               76      70/  2/  3 1018.9R
CEDAR KEY                  80     330/  2/  5 1018.9R
FERNANDINA                 81 82  130/  4/  5 1019.6
30.7N   81.3W              78 78                N/A     3/ 5
MAYPORT                    78 80  270/  7/ 10 1019.9
31.4N   80.9W              78 77  190/  6/  6 1019.3R   2/ 5   2/ 5
ST AUGUSTINE               78 80  150/ 13/ 14 1019.4R

$$
FLZ040-043>046-052-053-057-058-063-144-240400-
INTERIOR CENTRAL FLORIDA

CITY           SKY/WX    TMP DP  RH WIND       PRES   REMARKS
OCALA          CLEAR     77  71  82 CALM      30.10R
LEESBURG       PTCLDY    81  71  71 SE7       30.11R
SANFORD        CLEAR     78  71  79 SE8       30.10S
ORLANDO EXEC   MOCLDY    81  71  71 SE9       30.11R
ORLANDO INTL   MOCLDY    79  72  79 SE9       30.11R
KISSIMMEE      CLOUDY    80  72  76 SE10      30.12R
WINTER HAVEN   PTCLDY    81  68  64 SE14      30.11R
LAKELAND INTL  PTCLDY    77  75  94 N12       30.10R
BARTOW         FAIR      79  68  69 SE9       30.10R
SEBRING        FAIR      79  72  77 E7        30.11R
OKEECHOBEE     CLEAR     77  75  94 SE5       30.10R

$$
FLZ041-047-054-059-064-141-147-240400-
EAST CENTRAL FLORIDA

CITY           SKY/WX    TMP DP  RH WIND       PRES   REMARKS
DAYTONA BEACH  CLEAR     79  72  79 CALM      30.11R
DELAND         CLEAR     76  71  83 SE6       30.11S
JFK SPACE CTR  CLEAR     78  72  82 SE7       30.09S
CAPE CANAVERAL CLEAR     78  73  86 SE10      30.09S
PATRICK AFB    CLEAR     78  72  80 SE9       30.08F
MELBOURNE      CLEAR     80  73  79 SE10      30.10R
VERO BEACH     CLEAR     78  74  87 SE10      30.11R
FT PIERCE      CLEAR     78  72  81 E6        30.10R
STUART         CLEAR     79  72  78 SE6       30.12S

STATION/POSITION SKY/WX   TEMP    WIND        PRES    WAVE   SWELL
                          AIR SEA DIR/SP/G            HT/PER HT/PER
                          (F)     (DEG/KT/KT) (MB)    (FT/S) (FT/S)
28.5N   80.2W              80 79  130/ 10/ 14 1019.0R   3/ 4   2/ 9
28.9N   78.5W              79 80  140/ 10/ 12 1021.0R   3/ 9   2/ 9
TRIDENT PIER               78 86  140/  4/  7 1018.6
28.4N   80.5W                 78                N/A     3/ 5
27.6N   80.2W                 77                N/A     2/ 4

$$
FLZ050-056-061-142-242-148-248-149-249-151-251-155-255-
160-260-240400-
WEST CENTRAL FLORIDA

CITY           SKY/WX    TMP DP  RH WIND       PRES   REMARKS
CRYSTAL RIVER  CLOUDY    77  72  83 CALM      30.09S
INVERNESS      FAIR      73  73 100 CALM      30.09S
BROOKSVILLE    CLOUDY    79  74  84 N3        30.10R
CLEARWATER AIR MOCLDY    79  72  78 N6        30.07F
ST PETE CLEARW NOT AVBL
TAMPA INTL     MOCLDY    83  72  69 NW6       30.09R
TAMPA EXEC       N/A     77  75  94 CALM      30.10S
PLANT CITY     MOCLDY    81  72  74 N5        30.11F
MACDILL AFB    MOCLDY    81  72  74 N5        30.04S
PETER O KNIGHT CLOUDY   N/A N/A N/A E8        30.09R
ST PETERSBURG  CLOUDY    82  72  71 N6        30.06R
SARASOTA       LGT RAIN  74  70  87 N3        30.06F
VENICE         MOCLDY    77  77 100 CALM      30.09R

STATION/POSITION SKY/WX   TEMP    WIND        PRES    WAVE   SWELL
                          AIR SEA DIR/SP/G            HT/PER HT/PER
                          (F)     (DEG/KT/KT) (MB)    (FT/S) (FT/S)
27.3N   84.3W                 78                N/A     3/ 6
CLEARWATER BEACH           81 85  360/  9/ 10 1018.6
MIDDLE TAMPA BAY           82     340/  5/  7 1017.9
VENICE                     77 85  150/  2/  3 1018.3R

$$
FLZ066-069-070-075>078-162-262-165-265-240400-
SOUTHWEST FLORIDA AND KEYS

CITY           SKY/WX    TMP DP  RH WIND       PRES   REMARKS
PUNTA GORDA    CLOUDY    74  72  93 E5        30.11R
FT MYERS       CLOUDY    76  72  87 NW6       30.09S
SOUTHWEST INTL MOCLDY    75  73  93 SW7       30.09R
NAPLES         MOCLDY    78  73  84 CALM      30.08R
MARCO ISLAND   CLEAR     80  71  74 E6        30.09R
IMMOKALEE      FAIR      77  70  78 CALM      30.08R
MARATHON       PTCLDY    82  73  74 E7        30.05R
KEY WEST NAS   PTCLDY   N/A N/A N/A E18       30.04S
KEY WEST INTL  PTCLDY    82  75  79 E15       30.05R

STATION/POSITION SKY/WX   TEMP    WIND        PRES    WAVE   SWELL
                          AIR SEA DIR/SP/G            HT/PER HT/PER
                          (F)     (DEG/KT/KT) (MB)    (FT/S) (FT/S)
NAPLES                     81 86   30/  4/  7 1017.3
DRY TORTUGAS     NOT AVBL
SAND KEY                   82     110/ 16/ 19 1017.7R
SOMBRERO KEY               81     110/ 13/ 16 1018.0R
LONG KEY                   82                 1017.5R

$$
FLZ067-068-071>074-168-172>174-240400-
SOUTHEAST FLORIDA

CITY           SKY/WX    TMP DP  RH WIND       PRES   REMARKS
W PALM BEACH   PTCLDY    81  71  71 SE9       30.10S
BOCA RATON     PTCLDY    81  72  74 SE12      30.10R
FT LAUDER-EXEC PTCLDY    81  73  76 E9        30.08S
FT LAUDERDALE  PTCLDY    81  74  79 E13       30.08R
POMPANO BEACH  PTCLDY    81  73  76 E12       30.09R
PEMBROKE PINES CLEAR     81  71  71 E10       30.10R
OPA LOCKA      CLEAR     81  70  69 E13       30.09R
MIAMI          PTCLDY    82  73  74 E13       30.08R
WEST KENDALL   PTCLDY    77  74  90 SE6       30.08R
HOMESTEAD      LGT RAIN  77  73  88 E10       30.06R

STATION/POSITION SKY/WX   TEMP    WIND        PRES    WAVE   SWELL
                          AIR SEA DIR/SP/G            HT/PER HT/PER
                          (F)     (DEG/KT/KT) (MB)    (FT/S) (FT/S)
VIRGINIA KEY               83 85   80/ 14/ 18 1019.0
LAKE WORTH                 80 81  130/ 13/ 14 1018.7
FOWEY ROCKS                79 81  150/ 17/ 20 1018.8R
SETTLEMENT POINT           79     140/  7/ 10 1020.0R

$$




USA.gov is the U.S. government's official web portal to all federal, state and local government web resources and services.